FLTSATCOM 8 (USA 46)

Last updated on Thu Oct 30 2025 00:02:46 GMT+0000 (Coordinated Universal Time)

1 20253U 89077A 25302.51686250 -.00000356 00000+0 00000+0 0 9991 2 20253 12.4868 352.5401 0006037 250.0223 107.3693 1.00270336258245
UTC large
Height (km)
Speed (km/s)
/
Latitude / Longitude
Inclination (degrees)
Orbital Period (minutes)
Azimuth
Elevation
Range (km)
Doppler Factor

Next 0 passes for location: London (51.5072 / 0.1276)

Sorry there are no passes over London.